Погода в Галёнках

Россия / Приморский край     44°02′35″N   131°45′43″E
темп.,
°C
ветер,
м/с
пор.,
м/с
влажн.,
%
обл.,
%
осадки,
мм/ч
давл.,
гПа
погр.,
м
25 мая, ср
ср2501:00+14ююв1196100 1.8 100812
04:00+12юв2296100 1.9 100741
07:00+13св359680 0.0 1008199
10:00+16ссв228193 0.0 1008618
13:00+20св2268100 0.0 1006818
16:00+21св5469100 0.0 1004768
19:00+18ссв587981 0.9 1005511
22:00+15всв359396 0.9 1005129
26 мая, чт
чт2601:00+13св1195100 0.0 100426
04:00+13св1196100 0.1 100316
07:00+13св2495100 0.7 1003145
10:00+17в4878100 0.9 1002686
13:00+14ю61496100 5.3 1001940
16:00+16ююз697897 6.1 10011053
19:00+14ююз5108888 0.6 1001809
22:00+13ююз4119125 0.7 1002633
27 мая, пт
пт2701:00+11ю369469 0.1 1002161
04:00+11в2595100 0.3 1001257
07:00+12ююв31193100 0.2 1002646
10:00+15ю3579100 1.6 1002609
13:00+14ю5981100 0.9 1001778
16:00+13зюз1290100 2.7 1000225
19:00+13ссв0192100 0.9 100081
22:00+12зсз3495100 1.3 1000136
28 мая, сб
сб2801:00+11с239290 0.1 100057
04:00+11ссз239099 0.1 99982
07:00+12ссз12888 0.0 100097
10:00+16ссз23719 0.0 1001675
13:00+21ссв125515 0.0 10001480
16:00+23ю12475 0.1 9991634
19:00+21ююв46625 0.0 999239
22:00+14ююв4107793 0.0 1001209
29 мая, вс
вс2901:00+12ююв4981100 0.0 1002236
04:00+11ююв4889100 0.0 1002232
07:00+12ю51089100 0.0 1003286
10:00+18ю6870100 0.0 1002552
13:00+19ю8967100 0.0 1003566
16:00+18ю81469100 0.0 1003638
19:00+16ююз9196942 0.0 1003726
22:00+14ююз91870100 0.0 1005750